When you browse on this site, cookies collect data to enhance your experience and personalize the content and advertising you see.
Visit our Privacy Policy to learn more. By continuing to use the site, you agree to this use of cookies and data.

Meteo pe oră la Prudnik

Astăzi, 5 Iulie, Duminică

Timp Temperatura Precipitaţii Vânt Presiune Umiditate
00:00 +17°C° 0 mm 2 m/s 739 mmHg 77%
01:00 +17°C° 0 mm 2 m/s 739 mmHg 77%
02:00 +17°C° 0 mm 2 m/s 739 mmHg 79%
03:00 +17°C° 0 mm 2 m/s 738 mmHg 81%
04:00 +17°C° 0 mm 2 m/s 738 mmHg 83%
05:00 +18°C° 0 mm 2 m/s 738 mmHg 79%
06:00 +20°C° 0 mm 2 m/s 738 mmHg 76%
07:00 +23°C° 0 mm 2 m/s 739 mmHg 72%
08:00 +24°C° 0 mm 2 m/s 739 mmHg 68%
09:00 +25°C° 0 mm 2 m/s 739 mmHg 64%
10:00 +26°C° 0 mm 3 m/s 739 mmHg 60%
11:00 +27°C° 0 mm 3 m/s 738 mmHg 61%
12:00 +27°C° 0 mm 3 m/s 738 mmHg 61%
13:00 +28°C° 0 mm 4 m/s 738 mmHg 62%
14:00 +28°C° 0.2 mm 4 m/s 738 mmHg 63%
15:00 +28°C° 0.2 mm 4 m/s 737 mmHg 65%
16:00 +28°C° 0.2 mm 4 m/s 737 mmHg 67%
17:00 +26°C° 0.2 mm 3 m/s 737 mmHg 72%
18:00 +25°C° 0.2 mm 3 m/s 737 mmHg 77%
19:00 +24°C° 0.2 mm 2 m/s 737 mmHg 82%
20:00 +23°C° 0 mm 2 m/s 737 mmHg 85%
21:00 +21°C° 0 mm 2 m/s 737 mmHg 87%
22:00 +20°C° 0 mm 2 m/s 737 mmHg 89%
23:00 +19°C° 0 mm 2 m/s 737 mmHg 89%

Mâine, 6 Iulie, Luni

Timp Temperatura Precipitaţii Vânt Presiune Umiditate
00:00 +19°C° 0 mm 2 m/s 737 mmHg 89%
01:00 +19°C° 0 mm 2 m/s 736 mmHg 89%
02:00 +19°C° 0 mm 2 m/s 736 mmHg 90%
03:00 +18°C° 0 mm 3 m/s 736 mmHg 91%
04:00 +18°C° 0 mm 3 m/s 736 mmHg 91%
05:00 +19°C° 0 mm 3 m/s 736 mmHg 87%
06:00 +20°C° 0 mm 3 m/s 736 mmHg 82%
07:00 +22°C° 0 mm 4 m/s 736 mmHg 78%
08:00 +22°C° 0 mm 3 m/s 736 mmHg 74%
09:00 +24°C° 0 mm 3 m/s 736 mmHg 70%
10:00 +25°C° 0 mm 3 m/s 736 mmHg 66%
11:00 +25°C° 0.3 mm 4 m/s 735 mmHg 69%
12:00 +23°C° 0.3 mm 4 m/s 735 mmHg 72%
13:00 +22°C° 0.3 mm 5 m/s 735 mmHg 75%
14:00 +22°C° 0.2 mm 4 m/s 735 mmHg 75%
15:00 +22°C° 0.2 mm 3 m/s 735 mmHg 75%
16:00 +22°C° 0.2 mm 3 m/s 735 mmHg 75%
17:00 +21°C° 0.1 mm 3 m/s 735 mmHg 77%
18:00 +20°C° 0.1 mm 3 m/s 735 mmHg 79%
19:00 +19°C° 0.1 mm 3 m/s 735 mmHg 82%
20:00 +18°C° 0.2 mm 3 m/s 736 mmHg 79%
21:00 +17°C° 0.2 mm 3 m/s 737 mmHg 77%
22:00 +16°C° 0.2 mm 3 m/s 737 mmHg 75%
23:00 +14°C° 0.5 mm 3 m/s 737 mmHg 78%

Poimâine, 7 Iulie, Marţi

Timp Temperatura Precipitaţii Vânt Presiune Umiditate
00:00 +13°C° 0.5 mm 3 m/s 738 mmHg 82%
01:00 +14°C° 0.5 mm 2 m/s 738 mmHg 86%
02:00 +13°C° 0.1 mm 2 m/s 738 mmHg 85%
03:00 +13°C° 0.1 mm 2 m/s 738 mmHg 85%
04:00 +13°C° 0.1 mm 2 m/s 738 mmHg 85%
05:00 +12°C° 0 mm 3 m/s 739 mmHg 84%
06:00 +13°C° 0 mm 4 m/s 739 mmHg 83%
07:00 +13°C° 0 mm 5 m/s 739 mmHg 82%
08:00 +14°C° 0 mm 5 m/s 740 mmHg 77%
09:00 +15°C° 0 mm 5 m/s 740 mmHg 73%
10:00 +16°C° 0 mm 6 m/s 740 mmHg 68%
11:00 +16°C° 0 mm 5 m/s 740 mmHg 66%
12:00 +17°C° 0 mm 5 m/s 740 mmHg 63%
13:00 +17°C° 0 mm 5 m/s 740 mmHg 61%
14:00 +17°C° 0.1 mm 5 m/s 740 mmHg 62%
15:00 +17°C° 0.1 mm 5 m/s 740 mmHg 64%
16:00 +17°C° 0.1 mm 5 m/s 740 mmHg 65%
17:00 +17°C° 0 mm 4 m/s 740 mmHg 69%
18:00 +16°C° 0 mm 3 m/s 740 mmHg 73%
19:00 +15°C° 0 mm 2 m/s 740 mmHg 77%
20:00 +14°C° 0 mm 2 m/s 740 mmHg 80%
21:00 +13°C° 0 mm 1 m/s 741 mmHg 83%
22:00 +11°C° 0 mm 1 m/s 741 mmHg 86%
23:00 +11°C° 0 mm 1 m/s 741 mmHg 86%

8 Iulie, Miercuri

Timp Temperatura Precipitaţii Vânt Presiune Umiditate
00:00 +11°C° 0 mm 1 m/s 741 mmHg 87%
01:00 +10°C° 0 mm 1 m/s 740 mmHg 87%
02:00 +10°C° 0 mm 1 m/s 740 mmHg 87%
03:00 +10°C° 0 mm 1 m/s 740 mmHg 86%
04:00 +10°C° 0 mm 1 m/s 740 mmHg 86%
05:00 +12°C° 0 mm 1 m/s 740 mmHg 80%
06:00 +14°C° 0 mm 2 m/s 740 mmHg 75%
07:00 +15°C° 0 mm 2 m/s 739 mmHg 69%
08:00 +17°C° 0 mm 2 m/s 739 mmHg 65%
09:00 +18°C° 0 mm 2 m/s 739 mmHg 60%
10:00 +20°C° 0 mm 2 m/s 739 mmHg 55%
11:00 +21°C° 0 mm 2 m/s 739 mmHg 54%
12:00 +23°C° 0 mm 2 m/s 738 mmHg 53%
13:00 +24°C° 0 mm 3 m/s 738 mmHg 51%
14:00 +24°C° 0 mm 3 m/s 738 mmHg 53%
15:00 +23°C° 0 mm 4 m/s 738 mmHg 54%
16:00 +23°C° 0 mm 4 m/s 737 mmHg 55%
17:00 +22°C° 0 mm 3 m/s 737 mmHg 62%
18:00 +20°C° 0 mm 3 m/s 738 mmHg 69%
19:00 +19°C° 0 mm 2 m/s 738 mmHg 77%
20:00 +18°C° 0 mm 2 m/s 738 mmHg 80%
21:00 +16°C° 0 mm 2 m/s 738 mmHg 83%
22:00 +15°C° 0 mm 2 m/s 739 mmHg 87%
23:00 +15°C° 0 mm 2 m/s 739 mmHg 86%

9 Iulie, Joi

Timp Temperatura Precipitaţii Vânt Presiune Umiditate
00:00 +14°C° 0 mm 2 m/s 739 mmHg 85%
01:00 +14°C° 0 mm 2 m/s 740 mmHg 85%
02:00 +13°C° 0 mm 2 m/s 740 mmHg 88%
03:00 +12°C° 0 mm 3 m/s 740 mmHg 91%
04:00 +12°C° 0 mm 3 m/s 740 mmHg 94%
05:00 +13°C° 0 mm 3 m/s 741 mmHg 90%
06:00 +13°C° 0 mm 3 m/s 741 mmHg 86%
07:00 +14°C° 0 mm 3 m/s 742 mmHg 82%
08:00 +16°C° 0 mm 3 m/s 742 mmHg 76%
09:00 +17°C° 0 mm 3 m/s 742 mmHg 70%
10:00 +18°C° 0 mm 3 m/s 742 mmHg 65%
11:00 +19°C° 0 mm 3 m/s 742 mmHg 63%
12:00 +19°C° 0 mm 3 m/s 741 mmHg 62%
13:00 +20°C° 0 mm 3 m/s 741 mmHg 60%
14:00 +20°C° 0 mm 3 m/s 741 mmHg 61%
15:00 +20°C° 0 mm 2 m/s 741 mmHg 61%
16:00 +20°C° 0 mm 2 m/s 741 mmHg 61%
17:00 +20°C° 0 mm 1 m/s 741 mmHg 66%
18:00 +19°C° 0 mm 1 m/s 740 mmHg 70%
19:00 +16°C° 0 mm 0 m/s 740 mmHg 75%
20:00 +16°C° 0 mm 1 m/s 740 mmHg 77%
21:00 +15°C° 0 mm 1 m/s 740 mmHg 80%
22:00 +14°C° 0 mm 1 m/s 740 mmHg 82%
23:00 +13°C° 0 mm 1 m/s 740 mmHg 83%

10 Iulie, Vineri

Timp Temperatura Precipitaţii Vânt Presiune Umiditate
00:00 +13°C° 0 mm 1 m/s 740 mmHg 84%
01:00 +13°C° 0 mm 1 m/s 740 mmHg 85%
02:00 +13°C° 0 mm 1 m/s 740 mmHg 85%
03:00 +12°C° 0 mm 1 m/s 739 mmHg 85%
04:00 +12°C° 0 mm 1 m/s 739 mmHg 85%
05:00 +14°C° 0 mm 2 m/s 739 mmHg 80%
06:00 +16°C° 0 mm 2 m/s 739 mmHg 76%
07:00 +18°C° 0 mm 2 m/s 738 mmHg 71%
08:00 +20°C° 0 mm 2 m/s 738 mmHg 67%
09:00 +21°C° 0 mm 2 m/s 738 mmHg 63%
10:00 +24°C° 0 mm 3 m/s 738 mmHg 59%
11:00 +25°C° 0 mm 3 m/s 738 mmHg 57%
12:00 +26°C° 0 mm 3 m/s 737 mmHg 56%
13:00 +27°C° 0 mm 3 m/s 737 mmHg 55%
14:00 +27°C° 0 mm 3 m/s 737 mmHg 56%
15:00 +27°C° 0 mm 3 m/s 736 mmHg 57%
16:00 +27°C° 0 mm 3 m/s 736 mmHg 57%
17:00 +26°C° 0 mm 3 m/s 736 mmHg 64%
18:00 +25°C° 0 mm 2 m/s 736 mmHg 71%
19:00 +23°C° 0 mm 1 m/s 736 mmHg 77%
20:00 +21°C° 0.3 mm 2 m/s 736 mmHg 81%
21:00 +20°C° 0.3 mm 2 m/s 737 mmHg 84%
22:00 +19°C° 0.3 mm 2 m/s 737 mmHg 87%
23:00 +18°C° 0.2 mm 2 m/s 737 mmHg 90%
Arată mai mult